Time,TemperatureF,DewpointF,PressureIn,WindDirection,WindDirectionDegrees,WindSpeedMPH,WindSpeedGustMPH,Humidity,HourlyPrecipIn,Conditions,Clouds,dailyrainin,SoftwareType,DateUTC
2013-08-30 00:00:00,68.9,66.1,30.07,SSE,149,0.0,239.4,91,0.00,,,0.00,VWS V14.01,2013-08-30 04:00:00,
2013-08-30 00:01:00,68.9,66.0,30.06,SSE,149,0.0,239.4,91,0.00,,,0.00,VWS V14.01,2013-08-30 04:01:00,
2013-08-30 00:02:00,68.5,65.8,30.07,SSE,149,0.0,239.4,91,0.00,,,0.00,VWS V14.01,2013-08-30 04:02:00,
2013-08-30 00:03:00,68.5,65.8,30.07,SSE,149,0.0,239.4,91,0.00,,,0.00,VWS V14.01,2013-08-30 04:03:00,
2013-08-30 00:04:00,68.8,65.9,30.06,SSE,149,0.0,239.4,91,0.00,,,0.00,VWS V14.01,2013-08-30 04:04:00,
2013-08-30 00:05:00,68.5,65.8,30.07,SSE,149,0.0,239.4,91,0.00,,,0.00,VWS V14.01,2013-08-30 04:05:00,
2013-08-30 00:06:00,68.5,65.7,30.07,SSE,149,0.0,239.4,91,0.00,,,0.00,VWS V14.01,2013-08-30 04:06:00,
2013-08-30 00:07:00,68.5,65.7,30.07,SSE,149,0.0,239.4,91,0.00,,,0.00,VWS V14.01,2013-08-30 04:07:00,
2013-08-30 00:08:00,68.4,65.6,30.07,SSE,149,0.0,239.4,91,0.00,,,0.00,VWS V14.01,2013-08-30 04:08:00,
2013-08-30 00:09:00,68.7,65.9,30.07,SSE,149,0.0,239.4,91,0.00,,,0.00,VWS V14.01,2013-08-30 04:09:00,
2013-08-30 00:10:00,68.4,65.6,30.07,SSE,149,0.0,239.4,91,0.00,,,0.00,VWS V14.01,2013-08-30 04:10:00,
2013-08-30 00:11:00,68.5,65.7,30.07,SSE,149,0.0,239.4,91,0.00,,,0.00,VWS V14.01,2013-08-30 04:11:00,
2013-08-30 00:12:00,68.7,65.9,30.07,SSE,149,0.0,239.4,91,0.00,,,0.00,VWS V14.01,2013-08-30 04:12:00,
2013-08-30 00:14:00,68.4,65.6,30.06,SSE,149,0.0,239.4,91,0.00,,,0.00,VWS V14.01,2013-08-30 04:14:00,
2013-08-30 00:15:00,68.5,65.7,30.06,SSE,149,0.0,239.4,91,0.00,,,0.00,VWS V14.01,2013-08-30 04:15:00,
2013-08-30 00:16:00,68.5,65.7,30.06,SSE,149,0.0,239.4,91,0.00,,,0.00,VWS V14.01,2013-08-30 04:16:00,
2013-08-30 00:17:00,68.6,65.8,30.07,SSE,149,0.0,239.4,91,0.00,,,0.00,VWS V14.01,2013-08-30 04:17:00,
2013-08-30 00:18:00,68.7,65.8,30.07,SSE,149,0.0,239.4,91,0.00,,,0.00,VWS V14.01,2013-08-30 04:18:00,
2013-08-30 00:19:00,68.5,65.7,30.06,SSE,149,0.0,239.4,91,0.00,,,0.00,VWS V14.01,2013-08-30 04:19:00,
2013-08-30 00:20:00,68.5,65.7,30.06,SSE,149,0.0,239.4,91,0.00,,,0.00,VWS V14.01,2013-08-30 04:20:00,
2013-08-30 00:21:00,68.5,65.7,30.06,SSE,149,0.0,239.4,91,0.00,,,0.00,VWS V14.01,2013-08-30 04:21:00,
2013-08-30 00:22:00,68.4,65.6,30.06,SSE,149,0.0,239.4,91,0.00,,,0.00,VWS V14.01,2013-08-30 04:22:00,
2013-08-30 00:23:00,68.7,65.8,30.07,SSE,149,0.0,239.4,91,0.00,,,0.00,VWS V14.01,2013-08-30 04:23:00,
2013-08-30 00:24:00,68.4,65.6,30.06,SSE,149,0.0,239.4,91,0.00,,,0.00,VWS V14.01,2013-08-30 04:24:00,
2013-08-30 00:25:00,68.4,65.6,30.06,SSE,149,0.0,239.4,91,0.00,,,0.00,VWS V14.01,2013-08-30 04:25:00,
2013-08-30 00:26:00,68.4,65.6,30.06,SSE,149,0.0,239.4,91,0.00,,,0.00,VWS V14.01,2013-08-30 04:26:00,
2013-08-30 00:27:00,68.5,65.7,30.06,SSE,149,0.0,239.4,91,0.00,,,0.00,VWS V14.01,2013-08-30 04:27:00,
2013-08-30 00:28:00,68.5,65.7,30.06,SSE,149,0.0,239.4,91,0.00,,,0.00,VWS V14.01,2013-08-30 04:28:00,
2013-08-30 00:29:00,68.6,65.9,30.08,SSE,149,0.0,239.4,91,0.00,,,0.00,VWS V14.01,2013-08-30 04:29:00,
2013-08-30 00:30:00,68.5,65.7,30.06,SSE,149,0.0,239.4,91,0.00,,,0.00,VWS V14.01,2013-08-30 04:30:00,
2013-08-30 00:31:00,68.5,65.7,30.06,SSE,149,0.0,239.4,91,0.00,,,0.00,VWS V14.01,2013-08-30 04:31:00,
2013-08-30 00:32:00,68.5,65.7,30.06,SSE,149,0.0,239.4,91,0.00,,,0.00,VWS V14.01,2013-08-30 04:32:00,
2013-08-30 00:33:00,68.5,65.7,30.06,SSE,149,0.0,239.4,91,0.00,,,0.00,VWS V14.01,2013-08-30 04:33:00,
2013-08-30 00:34:00,68.5,65.8,30.08,SSE,149,0.0,239.4,91,0.00,,,0.00,VWS V14.01,2013-08-30 04:34:00,
2013-08-30 00:35:00,68.4,65.6,30.06,SSE,149,0.0,239.4,91,0.00,,,0.00,VWS V14.01,2013-08-30 04:35:00,
2013-08-30 00:36:00,68.4,65.6,30.06,SSE,149,0.0,239.4,91,0.00,,,0.00,VWS V14.01,2013-08-30 04:36:00,
2013-08-30 00:37:00,68.4,65.6,30.05,SSE,149,0.0,239.4,91,0.00,,,0.00,VWS V14.01,2013-08-30 04:37:00,
2013-08-30 00:39:00,68.4,65.6,30.05,SSE,149,0.0,239.4,91,0.00,,,0.00,VWS V14.01,2013-08-30 04:39:00,
2013-08-30 00:40:00,68.5,65.8,30.08,SSE,149,0.0,239.4,91,0.00,,,0.00,VWS V14.01,2013-08-30 04:40:00,
2013-08-30 00:41:00,68.4,65.6,30.05,SSE,149,0.0,239.4,91,0.00,,,0.00,VWS V14.01,2013-08-30 04:41:00,
2013-08-30 00:42:00,68.4,65.6,30.05,SSE,149,0.0,239.4,91,0.00,,,0.00,VWS V14.01,2013-08-30 04:42:00,
2013-08-30 00:43:00,68.4,65.6,30.05,SSE,149,0.0,239.4,91,0.00,,,0.00,VWS V14.01,2013-08-30 04:43:00,
2013-08-30 00:44:00,68.4,65.6,30.05,SSE,149,0.0,239.4,91,0.00,,,0.00,VWS V14.01,2013-08-30 04:44:00,
2013-08-30 00:45:00,68.5,65.7,30.07,SSE,149,0.0,239.4,91,0.00,,,0.00,VWS V14.01,2013-08-30 04:45:00,
2013-08-30 00:46:00,68.4,65.6,30.05,SSE,149,0.0,239.4,91,0.00,,,0.00,VWS V14.01,2013-08-30 04:46:00,
2013-08-30 00:47:00,68.4,65.6,30.05,SSE,149,0.0,239.4,91,0.00,,,0.00,VWS V14.01,2013-08-30 04:47:00,
2013-08-30 00:48:00,68.4,65.6,30.05,SSE,149,0.0,239.4,91,0.00,,,0.00,VWS V14.01,2013-08-30 04:48:00,
2013-08-30 00:49:00,68.4,65.6,30.05,SSE,149,0.0,239.4,91,0.00,,,0.00,VWS V14.01,2013-08-30 04:49:00,
2013-08-30 00:50:00,68.6,65.9,30.07,SSE,149,0.0,239.4,91,0.00,,,0.00,VWS V14.01,2013-08-30 04:50:00,
2013-08-30 00:51:00,68.4,65.6,30.05,SSE,149,0.0,239.4,91,0.00,,,0.00,VWS V14.01,2013-08-30 04:51:00,
2013-08-30 00:52:00,68.4,65.6,30.05,SSE,149,0.0,239.4,91,0.00,,,0.00,VWS V14.01,2013-08-30 04:52:00,
2013-08-30 00:53:00,68.4,65.6,30.05,SSE,149,0.0,239.4,91,0.00,,,0.00,VWS V14.01,2013-08-30 04:53:00,
2013-08-30 00:54:00,68.4,65.6,30.05,SSE,149,0.0,239.4,91,0.00,,,0.00,VWS V14.01,2013-08-30 04:54:00,
2013-08-30 00:55:00,68.4,65.6,30.05,SSE,149,0.0,239.4,91,0.00,,,0.00,VWS V14.01,2013-08-30 04:55:00,
2013-08-30 00:56:00,68.5,65.7,30.07,SSE,149,0.0,239.4,91,0.00,,,0.00,VWS V14.01,2013-08-30 04:56:00,
2013-08-30 00:57:00,68.4,65.6,30.05,SSE,149,0.0,239.4,91,0.00,,,0.00,VWS V14.01,2013-08-30 04:57:00,
2013-08-30 00:58:00,68.4,65.6,30.05,SSE,149,0.0,239.4,91,0.00,,,0.00,VWS V14.01,2013-08-30 04:58:00,
2013-08-30 00:59:00,68.4,65.5,30.05,SSE,149,0.0,239.4,90,0.00,,,0.00,VWS V14.01,2013-08-30 04:59:00,
2013-08-30 01:00:00,68.4,65.5,30.05,SSE,149,0.0,239.4,90,0.00,,,0.00,VWS V14.01,2013-08-30 05:00:00,
2013-08-30 01:01:00,68.4,65.5,30.05,SSE,149,0.0,239.4,90,0.00,,,0.00,VWS V14.01,2013-08-30 05:01:00,
2013-08-30 01:02:00,68.4,65.5,30.05,SSE,149,0.0,239.4,90,0.00,,,0.00,VWS V14.01,2013-08-30 05:02:00,
2013-08-30 01:04:00,68.4,65.5,30.05,SSE,149,0.0,239.4,90,0.00,,,0.00,VWS V14.01,2013-08-30 05:04:00,
2013-08-30 01:05:00,68.3,65.4,30.05,SSE,149,0.0,239.4,90,0.00,,,0.00,VWS V14.01,2013-08-30 05:05:00,
2013-08-30 01:06:00,68.3,65.4,30.05,SSE,149,0.0,239.4,90,0.00,,,0.00,VWS V14.01,2013-08-30 05:06:00,
2013-08-30 01:07:00,68.3,65.4,30.05,SSE,149,0.0,239.4,90,0.00,,,0.00,VWS V14.01,2013-08-30 05:07:00,
2013-08-30 01:08:00,68.3,65.4,30.05,SSE,149,0.0,239.4,90,0.00,,,0.00,VWS V14.01,2013-08-30 05:08:00,
2013-08-30 01:09:00,68.3,65.4,30.05,SSE,149,0.0,239.4,90,0.00,,,0.00,VWS V14.01,2013-08-30 05:09:00,
2013-08-30 01:10:00,68.3,65.4,30.05,SSE,149,0.0,239.4,90,0.00,,,0.00,VWS V14.01,2013-08-30 05:10:00,
2013-08-30 01:11:00,68.3,65.4,30.05,SSE,149,0.0,239.4,90,0.00,,,0.00,VWS V14.01,2013-08-30 05:11:00,
2013-08-30 01:12:00,68.3,65.4,30.05,SSE,149,0.0,239.4,90,0.00,,,0.00,VWS V14.01,2013-08-30 05:12:00,
2013-08-30 01:13:00,68.3,65.4,30.05,SSE,149,0.0,239.4,90,0.00,,,0.00,VWS V14.01,2013-08-30 05:13:00,
2013-08-30 01:14:00,68.3,65.4,30.05,SSE,149,0.0,239.4,90,0.00,,,0.00,VWS V14.01,2013-08-30 05:14:00,
2013-08-30 01:15:00,68.3,65.4,30.05,SSE,149,0.0,239.4,91,0.00,,,0.00,VWS V14.01,2013-08-30 05:15:00,
2013-08-30 01:16:00,68.3,65.4,30.05,SSE,149,0.0,239.4,90,0.00,,,0.00,VWS V14.01,2013-08-30 05:16:00,
2013-08-30 01:17:00,68.2,65.3,30.05,SSE,149,0.0,239.4,90,0.00,,,0.00,VWS V14.01,2013-08-30 05:17:00,
2013-08-30 01:18:00,68.2,65.3,30.05,SSE,149,0.0,239.4,90,0.00,,,0.00,VWS V14.01,2013-08-30 05:18:00,
2013-08-30 01:19:00,68.2,65.3,30.05,SSE,149,0.0,239.4,91,0.00,,,0.00,VWS V14.01,2013-08-30 05:19:00,
2013-08-30 01:20:00,68.2,65.3,30.05,SSE,149,0.0,239.4,91,0.00,,,0.00,VWS V14.01,2013-08-30 05:20:00,
2013-08-30 01:21:00,68.2,65.4,30.05,SSE,149,0.0,239.4,91,0.00,,,0.00,VWS V14.01,2013-08-30 05:21:00,
2013-08-30 01:22:00,68.2,65.4,30.05,SSE,149,0.0,239.4,91,0.00,,,0.00,VWS V14.01,2013-08-30 05:22:00,
2013-08-30 01:23:00,68.2,65.4,30.05,SSE,149,0.0,239.4,91,0.00,,,0.00,VWS V14.01,2013-08-30 05:23:00,
2013-08-30 01:24:00,68.2,65.4,30.04,SSE,149,0.0,239.4,91,0.00,,,0.00,VWS V14.01,2013-08-30 05:24:00,
2013-08-30 01:25:00,68.2,65.4,30.04,SSE,149,0.0,239.4,91,0.00,,,0.00,VWS V14.01,2013-08-30 05:25:00,
2013-08-30 01:26:00,68.2,65.4,30.04,SSE,149,0.0,239.4,91,0.00,,,0.00,VWS V14.01,2013-08-30 05:26:00,
2013-08-30 01:27:00,68.2,65.4,30.04,SSE,149,0.0,239.4,91,0.00,,,0.00,VWS V14.01,2013-08-30 05:27:00,
2013-08-30 01:28:00,68.2,65.4,30.04,SSE,149,0.0,239.4,91,0.00,,,0.00,VWS V14.01,2013-08-30 05:28:00,
2013-08-30 01:30:00,68.2,65.4,30.04,SSE,149,0.0,239.4,91,0.00,,,0.00,VWS V14.01,2013-08-30 05:30:00,
2013-08-30 01:31:00,68.2,65.4,30.04,SSE,149,0.0,239.4,91,0.00,,,0.00,VWS V14.01,2013-08-30 05:31:00,
2013-08-30 01:32:00,68.2,65.4,30.04,SSE,149,0.0,239.4,91,0.00,,,0.00,VWS V14.01,2013-08-30 05:32:00,
2013-08-30 01:33:00,68.2,65.4,30.04,SSE,149,0.0,239.4,91,0.00,,,0.00,VWS V14.01,2013-08-30 05:33:00,
2013-08-30 01:34:00,68.2,65.4,30.04,SSE,149,0.0,239.4,91,0.00,,,0.00,VWS V14.01,2013-08-30 05:34:00,
2013-08-30 01:35:00,68.1,65.4,30.04,SSE,149,0.0,239.4,91,0.00,,,0.00,VWS V14.01,2013-08-30 05:35:00,
2013-08-30 01:37:00,68.2,65.4,30.05,SSE,149,0.0,239.4,91,0.00,,,0.00,VWS V14.01,2013-08-30 05:37:00,
2013-08-30 01:38:00,68.1,65.3,30.04,SSE,149,0.0,239.4,91,0.00,,,0.00,VWS V14.01,2013-08-30 05:38:00,
2013-08-30 01:39:00,68.2,65.4,30.05,SSE,149,0.0,239.4,91,0.00,,,0.00,VWS V14.01,2013-08-30 05:39:00,
2013-08-30 01:46:00,68.1,65.4,30.04,SSE,149,0.0,239.4,91,0.00,,,0.00,VWS V14.01,2013-08-30 05:46:00,
2013-08-30 01:49:00,68.1,65.4,30.04,SSE,149,0.0,239.4,91,0.00,,,0.00,VWS V14.01,2013-08-30 05:49:00,
2013-08-30 02:00:00,68.1,65.4,30.04,SSE,149,0.0,239.4,91,0.00,,,0.00,VWS V14.01,2013-08-30 06:00:00,
2013-08-30 02:05:00,68.0,65.4,30.04,SSE,149,0.0,239.4,91,0.00,,,0.00,VWS V14.01,2013-08-30 06:05:00,
2013-08-30 02:08:00,68.0,65.3,30.04,SSE,149,0.0,239.4,91,0.00,,,0.00,VWS V14.01,2013-08-30 06:08:00,
2013-08-30 02:33:00,68.2,65.5,30.04,SSE,149,0.0,239.4,91,0.00,,,0.00,VWS V14.01,2013-08-30 06:33:00,
2013-08-30 02:38:00,68.1,65.3,30.05,SSE,149,0.0,239.4,91,0.00,,,0.00,VWS V14.01,2013-08-30 06:38:00,
2013-08-30 02:44:00,68.0,65.3,30.04,SSE,149,0.0,239.4,91,0.00,,,0.00,VWS V14.01,2013-08-30 06:44:00,
2013-08-30 02:49:00,68.1,65.4,30.04,SSE,149,0.0,239.4,91,0.00,,,0.00,VWS V14.01,2013-08-30 06:49:00,
2013-08-30 02:54:00,68.1,65.4,30.04,SSE,149,0.0,239.4,91,0.00,,,0.00,VWS V14.01,2013-08-30 06:54:00,
2013-08-30 03:00:00,68.0,65.3,30.04,SSE,149,0.0,239.4,91,0.00,,,0.00,VWS V14.01,2013-08-30 07:00:00,
2013-08-30 03:06:00,68.0,65.4,30.04,SSE,149,0.0,239.4,91,0.00,,,0.00,VWS V14.01,2013-08-30 07:06:00,
2013-08-30 03:11:00,68.0,65.3,30.04,SSE,149,0.0,239.4,91,0.00,,,0.00,VWS V14.01,2013-08-30 07:11:00,
2013-08-30 03:16:00,68.0,65.3,30.04,SSE,149,0.0,239.4,91,0.00,,,0.00,VWS V14.01,2013-08-30 07:16:00,
2013-08-30 03:21:00,68.0,65.3,30.04,SSE,149,0.0,239.4,91,0.00,,,0.00,VWS V14.01,2013-08-30 07:21:00,
2013-08-30 03:27:00,67.9,65.3,30.04,SSE,149,0.0,239.4,91,0.00,,,0.00,VWS V14.01,2013-08-30 07:27:00,
2013-08-30 03:32:00,67.9,65.4,30.04,SSE,149,0.0,239.4,92,0.00,,,0.00,VWS V14.01,2013-08-30 07:32:00,
2013-08-30 03:37:00,67.8,65.4,30.04,SSE,149,0.0,239.4,92,0.00,,,0.00,VWS V14.01,2013-08-30 07:37:00,
2013-08-30 03:42:00,67.9,65.5,30.03,SSE,149,0.0,239.4,92,0.00,,,0.00,VWS V14.01,2013-08-30 07:42:00,
2013-08-30 03:47:00,67.9,65.5,30.03,SSE,149,0.0,239.4,92,0.00,,,0.00,VWS V14.01,2013-08-30 07:47:00,
2013-08-30 03:52:00,67.9,65.5,30.03,SSE,149,0.0,239.4,92,0.00,,,0.00,VWS V14.01,2013-08-30 07:52:00,
2013-08-30 03:58:00,67.9,65.5,30.03,SSE,149,0.0,239.4,92,0.00,,,0.00,VWS V14.01,2013-08-30 07:58:00,
2013-08-30 04:03:00,67.9,65.5,30.02,SSE,149,0.0,239.4,92,0.00,,,0.00,VWS V14.01,2013-08-30 08:03:00,
2013-08-30 04:08:00,67.9,65.5,30.02,SSE,149,0.0,239.4,92,0.00,,,0.00,VWS V14.01,2013-08-30 08:08:00,
2013-08-30 04:13:00,67.8,65.5,30.02,SSE,149,0.0,239.4,92,0.00,,,0.00,VWS V14.01,2013-08-30 08:13:00,
2013-08-30 04:18:00,67.8,65.5,30.02,SSE,149,0.0,239.4,92,0.00,,,0.00,VWS V14.01,2013-08-30 08:18:00,
2013-08-30 04:24:00,67.8,65.5,30.02,SSE,149,0.0,239.4,92,0.00,,,0.00,VWS V14.01,2013-08-30 08:24:00,
2013-08-30 04:29:00,67.8,65.5,30.02,SSE,149,0.0,239.4,92,0.00,,,0.00,VWS V14.01,2013-08-30 08:29:00,
2013-08-30 04:34:00,67.8,65.6,30.03,SSE,149,0.0,239.4,92,0.00,,,0.00,VWS V14.01,2013-08-30 08:34:00,
2013-08-30 04:39:00,67.7,65.4,30.02,SSE,149,0.0,239.4,92,0.00,,,0.00,VWS V14.01,2013-08-30 08:39:00,
2013-08-30 04:44:00,67.8,65.6,30.03,SSE,149,0.0,239.4,93,0.00,,,0.00,VWS V14.01,2013-08-30 08:44:00,
2013-08-30 04:50:00,67.7,65.6,30.03,SSE,149,0.0,239.4,93,0.00,,,0.00,VWS V14.01,2013-08-30 08:50:00,
2013-08-30 04:55:00,67.7,65.6,30.03,SSE,149,0.0,239.4,93,0.00,,,0.00,VWS V14.01,2013-08-30 08:55:00,
2013-08-30 05:00:00,67.7,65.6,30.03,SSE,149,0.0,239.4,93,0.00,,,0.00,VWS V14.01,2013-08-30 09:00:00,
2013-08-30 05:06:00,67.7,65.7,30.03,SSE,149,0.0,239.4,93,0.00,,,0.00,VWS V14.01,2013-08-30 09:06:00,
2013-08-30 05:11:00,67.7,65.7,30.03,SSE,149,0.0,239.4,93,0.00,,,0.00,VWS V14.01,2013-08-30 09:11:00,
2013-08-30 05:16:00,67.7,65.8,30.03,SSE,149,0.0,239.4,94,0.00,,,0.00,VWS V14.01,2013-08-30 09:16:00,
2013-08-30 05:21:00,67.7,65.8,30.03,SSE,149,0.0,239.4,94,0.00,,,0.00,VWS V14.01,2013-08-30 09:21:00,
2013-08-30 05:27:00,67.6,65.7,30.03,SSE,149,0.0,239.4,94,0.00,,,0.00,VWS V14.01,2013-08-30 09:27:00,
2013-08-30 05:32:00,67.5,65.7,30.03,SSE,149,0.0,239.4,94,0.00,,,0.00,VWS V14.01,2013-08-30 09:32:00,
2013-08-30 05:37:00,67.4,65.6,30.03,SSE,149,0.0,239.4,94,0.00,,,0.00,VWS V14.01,2013-08-30 09:37:00,
2013-08-30 05:42:00,67.4,65.7,30.03,SSE,149,0.0,239.4,94,0.00,,,0.00,VWS V14.01,2013-08-30 09:42:00,
2013-08-30 05:47:00,67.4,65.7,30.03,SSE,149,0.0,239.4,94,0.00,,,0.00,VWS V14.01,2013-08-30 09:47:00,
2013-08-30 05:53:00,67.4,65.7,30.03,SSE,149,0.0,239.4,94,0.00,,,0.00,VWS V14.01,2013-08-30 09:53:00,
2013-08-30 05:58:00,67.4,65.7,30.03,SSE,149,0.0,239.4,94,0.00,,,0.00,VWS V14.01,2013-08-30 09:58:00,
2013-08-30 06:03:00,67.4,65.7,30.03,SSE,149,0.0,239.4,94,0.00,,,0.00,VWS V14.01,2013-08-30 10:03:00,
2013-08-30 06:08:00,67.4,65.7,30.03,SSE,149,0.0,239.4,94,0.00,,,0.00,VWS V14.01,2013-08-30 10:08:00,
2013-08-30 06:13:00,67.5,65.8,30.03,SSE,149,0.0,239.4,94,0.00,,,0.00,VWS V14.01,2013-08-30 10:13:00,
2013-08-30 06:19:00,67.5,65.8,30.03,SSE,149,0.0,239.4,94,0.00,,,0.00,VWS V14.01,2013-08-30 10:19:00,
2013-08-30 06:24:00,67.4,65.7,30.03,SSE,149,0.0,239.4,94,0.00,,,0.00,VWS V14.01,2013-08-30 10:24:00,
2013-08-30 06:29:00,67.5,65.9,30.04,SSE,149,0.0,239.4,94,0.00,,,0.00,VWS V14.01,2013-08-30 10:29:00,
2013-08-30 06:34:00,67.6,65.9,30.04,SSE,149,0.0,239.4,94,0.00,,,0.00,VWS V14.01,2013-08-30 10:34:00,
2013-08-30 06:39:00,67.5,65.9,30.04,SSE,149,0.0,239.4,94,0.00,,,0.00,VWS V14.01,2013-08-30 10:39:00,
2013-08-30 06:45:00,67.7,66.1,30.04,SSE,149,0.0,239.4,94,0.00,,,0.00,VWS V14.01,2013-08-30 10:45:00,
2013-08-30 06:50:00,67.7,66.1,30.04,SSE,149,0.0,239.4,94,0.00,,,0.00,VWS V14.01,2013-08-30 10:50:00,
2013-08-30 06:55:00,67.7,66.0,30.04,SSE,149,0.0,239.4,94,0.00,,,0.00,VWS V14.01,2013-08-30 10:55:00,
2013-08-30 07:00:00,67.8,66.1,30.04,SSE,149,0.0,239.4,94,0.00,,,0.00,VWS V14.01,2013-08-30 11:00:00,
2013-08-30 07:05:00,67.9,66.2,30.04,SSE,149,0.0,239.4,94,0.00,,,0.00,VWS V14.01,2013-08-30 11:05:00,
2013-08-30 07:11:00,67.9,66.2,30.04,SSE,149,0.0,239.4,94,0.00,,,0.00,VWS V14.01,2013-08-30 11:11:00,
2013-08-30 07:16:00,67.9,66.2,30.04,SSE,149,0.0,239.4,94,0.00,,,0.00,VWS V14.01,2013-08-30 11:16:00,
2013-08-30 07:21:00,68.0,66.4,30.04,SSE,149,0.0,239.4,94,0.00,,,0.00,VWS V14.01,2013-08-30 11:21:00,
2013-08-30 07:26:00,68.0,66.4,30.04,SSE,149,0.0,239.4,94,0.00,,,0.00,VWS V14.01,2013-08-30 11:26:00,
2013-08-30 07:31:00,68.1,66.5,30.03,SSE,149,0.0,239.4,95,0.00,,,0.00,VWS V14.01,2013-08-30 11:31:00,
2013-08-30 07:36:00,68.2,66.6,30.04,SSE,149,0.0,239.4,95,0.00,,,0.00,VWS V14.01,2013-08-30 11:36:00,
2013-08-30 07:42:00,68.3,66.7,30.03,SSE,149,0.0,239.4,95,0.00,,,0.00,VWS V14.01,2013-08-30 11:42:00,
2013-08-30 07:47:00,68.4,66.8,30.03,SSE,149,0.0,239.4,95,0.00,,,0.00,VWS V14.01,2013-08-30 11:47:00,
2013-08-30 07:52:00,68.4,66.8,30.03,SSE,149,0.0,239.4,95,0.00,,,0.00,VWS V14.01,2013-08-30 11:52:00,
2013-08-30 07:57:00,68.5,67.0,30.03,SSE,149,0.0,239.4,95,0.00,,,0.00,VWS V14.01,2013-08-30 11:57:00,
2013-08-30 08:02:00,68.8,67.2,30.03,SSE,149,0.0,239.4,95,0.00,,,0.00,VWS V14.01,2013-08-30 12:02:00,
2013-08-30 08:08:00,68.9,67.3,30.03,SSE,149,0.0,239.4,95,0.00,,,0.00,VWS V14.01,2013-08-30 12:08:00,
2013-08-30 08:13:00,69.0,67.4,30.03,SSE,149,0.0,239.4,95,0.00,,,0.00,VWS V14.01,2013-08-30 12:13:00,
2013-08-30 08:18:00,69.0,67.4,30.03,SSE,149,0.0,239.4,95,0.00,,,0.00,VWS V14.01,2013-08-30 12:18:00,
2013-08-30 08:23:00,69.1,67.4,30.04,SSE,149,0.0,239.4,94,0.00,,,0.00,VWS V14.01,2013-08-30 12:23:00,
2013-08-30 08:28:00,69.2,67.5,30.03,SSE,149,0.0,239.4,94,0.00,,,0.00,VWS V14.01,2013-08-30 12:28:00,
2013-08-30 08:34:00,69.5,67.7,30.03,SSE,149,0.0,239.4,94,0.00,,,0.00,VWS V14.01,2013-08-30 12:34:00,
2013-08-30 08:39:00,69.6,67.7,30.03,SSE,149,0.0,239.4,94,0.00,,,0.00,VWS V14.01,2013-08-30 12:39:00,
2013-08-30 08:44:00,69.7,67.8,30.03,SSE,149,0.0,239.4,94,0.00,,,0.00,VWS V14.01,2013-08-30 12:44:00,
2013-08-30 08:49:00,69.9,67.9,30.03,SSE,149,0.0,239.4,93,0.00,,,0.00,VWS V14.01,2013-08-30 12:49:00,
2013-08-30 08:54:00,70.4,68.2,30.03,SSE,149,0.0,239.4,93,0.00,,,0.00,VWS V14.01,2013-08-30 12:54:00,
2013-08-30 09:00:00,70.6,68.2,30.03,SSE,149,0.0,239.4,92,0.00,,,0.00,VWS V14.01,2013-08-30 13:00:00,
2013-08-30 09:05:00,71.0,68.6,30.03,SSE,149,0.0,239.4,92,0.00,,,0.00,VWS V14.01,2013-08-30 13:05:00,
2013-08-30 09:10:00,71.3,68.6,30.03,SSE,149,0.0,239.4,91,0.00,,,0.00,VWS V14.01,2013-08-30 13:10:00,
2013-08-30 09:15:00,71.6,68.8,30.02,SSE,149,0.0,239.4,91,0.00,,,0.00,VWS V14.01,2013-08-30 13:15:00,
2013-08-30 09:20:00,71.8,68.7,30.02,SSE,149,0.0,239.4,90,0.00,,,0.00,VWS V14.01,2013-08-30 13:20:00,
2013-08-30 09:25:00,72.1,69.0,30.03,SSE,149,0.0,239.4,90,0.00,,,0.00,VWS V14.01,2013-08-30 13:25:00,
2013-08-30 09:31:00,72.2,69.0,30.03,SSE,149,0.0,239.4,90,0.00,,,0.00,VWS V14.01,2013-08-30 13:31:00,
2013-08-30 09:36:00,72.3,68.8,30.03,SSE,149,0.0,239.4,89,0.00,,,0.00,VWS V14.01,2013-08-30 13:36:00,
2013-08-30 09:41:00,72.3,68.7,30.03,SSE,149,0.0,239.4,88,0.00,,,0.00,VWS V14.01,2013-08-30 13:41:00,
2013-08-30 09:46:00,72.5,68.9,30.03,SSE,149,0.0,239.4,88,0.00,,,0.00,VWS V14.01,2013-08-30 13:46:00,
2013-08-30 09:51:00,72.8,68.8,30.03,SSE,149,0.0,239.4,87,0.00,,,0.00,VWS V14.01,2013-08-30 13:51:00,
2013-08-30 09:57:00,73.2,69.0,30.03,SSE,149,0.0,239.4,87,0.00,,,0.00,VWS V14.01,2013-08-30 13:57:00,
2013-08-30 10:02:00,73.5,69.1,30.02,SSE,149,0.0,239.4,86,0.00,,,0.00,VWS V14.01,2013-08-30 14:02:00,
2013-08-30 10:08:00,73.8,69.3,30.02,SSE,149,0.0,239.4,86,0.00,,,0.00,VWS V14.01,2013-08-30 14:08:00,
2013-08-30 10:13:00,74.3,69.3,30.01,SSE,149,0.0,239.4,84,0.00,,,0.00,VWS V14.01,2013-08-30 14:13:00,
2013-08-30 10:19:00,74.5,68.6,30.02,SSE,149,0.0,239.4,82,0.00,,,0.00,VWS V14.01,2013-08-30 14:19:00,
2013-08-30 10:26:00,74.8,69.1,30.02,SSE,149,0.0,239.4,82,0.00,,,0.00,VWS V14.01,2013-08-30 14:26:00,
2013-08-30 10:32:00,74.8,68.9,30.02,SSE,149,0.0,239.4,82,0.00,,,0.00,VWS V14.01,2013-08-30 14:32:00,
2013-08-30 10:38:00,74.6,68.3,30.02,SSE,149,0.0,239.4,81,0.00,,,0.00,VWS V14.01,2013-08-30 14:38:00,
2013-08-30 10:43:00,74.6,68.8,30.02,SSE,149,0.0,239.4,82,0.00,,,0.00,VWS V14.01,2013-08-30 14:43:00,
2013-08-30 10:49:00,75.2,69.4,30.01,SSE,149,0.0,239.4,82,0.00,,,0.00,VWS V14.01,2013-08-30 14:49:00,
2013-08-30 10:54:00,75.7,69.2,30.02,SSE,149,0.0,239.4,80,0.00,,,0.00,VWS V14.01,2013-08-30 14:54:00,
2013-08-30 11:00:00,76.0,69.0,30.02,SSE,149,0.0,239.4,79,0.00,,,0.00,VWS V14.01,2013-08-30 15:00:00,
2013-08-30 11:05:00,76.5,69.1,30.01,SSE,149,0.0,239.4,78,0.00,,,0.00,VWS V14.01,2013-08-30 15:05:00,
2013-08-30 11:10:00,76.6,68.5,30.01,SSE,149,0.0,239.4,76,0.00,,,0.00,VWS V14.01,2013-08-30 15:10:00,
2013-08-30 11:15:00,77.0,68.7,30.01,SSE,149,0.0,239.4,76,0.00,,,0.00,VWS V14.01,2013-08-30 15:15:00,
2013-08-30 11:21:00,76.9,68.3,30.01,SSE,149,0.0,239.4,75,0.00,,,0.00,VWS V14.01,2013-08-30 15:21:00,
2013-08-30 11:26:00,76.9,68.5,30.01,SSE,149,0.0,239.4,75,0.00,,,0.00,VWS V14.01,2013-08-30 15:26:00,
2013-08-30 11:31:00,76.8,68.4,30.01,SSE,149,0.0,239.4,75,0.00,,,0.00,VWS V14.01,2013-08-30 15:31:00,
2013-08-30 11:37:00,77.0,68.9,30.00,SSE,149,0.0,239.4,76,0.00,,,0.00,VWS V14.01,2013-08-30 15:37:00,
2013-08-30 11:43:00,77.2,69.0,30.00,SSE,149,0.0,239.4,76,0.00,,,0.00,VWS V14.01,2013-08-30 15:43:00,
2013-08-30 11:48:00,77.2,68.6,30.00,SSE,149,0.0,239.4,75,0.00,,,0.00,VWS V14.01,2013-08-30 15:48:00,
2013-08-30 11:54:00,77.9,68.7,30.00,SSE,149,0.0,239.4,73,0.00,,,0.00,VWS V14.01,2013-08-30 15:54:00,
2013-08-30 11:59:00,78.2,68.6,30.00,SSE,149,0.0,239.4,72,0.00,,,0.00,VWS V14.01,2013-08-30 15:59:00,
2013-08-30 12:05:00,77.8,68.3,30.00,SSE,149,0.0,239.4,73,0.00,,,0.00,VWS V14.01,2013-08-30 16:05:00,
2013-08-30 12:10:00,77.7,68.7,30.00,SSE,149,0.0,239.4,74,0.00,,,0.00,VWS V14.01,2013-08-30 16:10:00,
2013-08-30 12:16:00,77.9,68.9,29.99,SSE,149,0.0,239.4,74,0.00,,,0.00,VWS V14.01,2013-08-30 16:16:00,
2013-08-30 12:22:00,78.7,69.2,29.99,SSE,149,0.0,239.4,73,0.00,,,0.00,VWS V14.01,2013-08-30 16:22:00,
2013-08-30 12:27:00,78.7,68.6,29.99,SSE,149,0.0,239.4,71,0.00,,,0.00,VWS V14.01,2013-08-30 16:27:00,
2013-08-30 12:32:00,78.9,68.7,29.99,SSE,149,0.0,239.4,71,0.00,,,0.00,VWS V14.01,2013-08-30 16:32:00,
2013-08-30 12:38:00,79.1,68.6,29.98,SSE,149,0.0,239.4,70,0.00,,,0.00,VWS V14.01,2013-08-30 16:38:00,
2013-08-30 12:45:00,80.3,68.1,29.98,SSE,149,0.0,239.4,66,0.00,,,0.00,VWS V14.01,2013-08-30 16:45:00,
2013-08-30 12:50:00,80.2,67.7,29.98,SSE,149,0.0,239.4,66,0.00,,,0.00,VWS V14.01,2013-08-30 16:50:00,
2013-08-30 12:56:00,80.5,68.2,29.98,SSE,149,0.0,239.4,66,0.00,,,0.00,VWS V14.01,2013-08-30 16:56:00,
2013-08-30 13:01:00,80.4,66.8,29.97,SSE,149,0.0,239.4,63,0.00,,,0.00,VWS V14.01,2013-08-30 17:01:00,
2013-08-30 13:07:00,80.4,67.8,29.97,SSE,149,0.0,239.4,66,0.00,,,0.00,VWS V14.01,2013-08-30 17:07:00,
2013-08-30 13:12:00,80.5,66.9,29.97,SSE,149,0.0,239.4,63,0.00,,,0.00,VWS V14.01,2013-08-30 17:12:00,
2013-08-30 13:17:00,80.5,67.0,29.97,SSE,149,0.0,239.4,64,0.00,,,0.00,VWS V14.01,2013-08-30 17:17:00,
2013-08-30 13:23:00,80.8,66.7,29.96,SSE,149,0.0,239.4,62,0.00,,,0.00,VWS V14.01,2013-08-30 17:23:00,
2013-08-30 13:28:00,81.0,66.8,29.96,SSE,149,0.0,239.4,62,0.00,,,0.00,VWS V14.01,2013-08-30 17:28:00,
2013-08-30 13:33:00,81.5,67.1,29.96,SSE,149,0.0,239.4,62,0.00,,,0.00,VWS V14.01,2013-08-30 17:33:00,
2013-08-30 13:38:00,81.7,67.5,29.96,SSE,149,0.0,239.4,62,0.00,,,0.00,VWS V14.01,2013-08-30 17:38:00,
2013-08-30 13:44:00,81.7,66.5,29.96,SSE,149,0.0,239.4,60,0.00,,,0.00,VWS V14.01,2013-08-30 17:44:00,
2013-08-30 13:49:00,82.0,66.8,29.96,SSE,149,0.0,239.4,60,0.00,,,0.00,VWS V14.01,2013-08-30 17:49:00,
2013-08-30 13:54:00,82.2,66.8,29.96,SSE,149,0.0,239.4,60,0.00,,,0.00,VWS V14.01,2013-08-30 17:54:00,
2013-08-30 13:59:00,82.1,67.2,29.96,SSE,149,0.0,239.4,61,0.00,,,0.00,VWS V14.01,2013-08-30 17:59:00,
2013-08-30 14:05:00,82.2,66.3,29.96,SSE,149,0.0,239.4,59,0.00,,,0.00,VWS V14.01,2013-08-30 18:05:00,
2013-08-30 14:10:00,82.6,66.3,29.96,SSE,149,0.0,239.4,58,0.00,,,0.00,VWS V14.01,2013-08-30 18:10:00,
2013-08-30 14:16:00,83.1,66.5,29.96,SSE,149,0.0,239.4,57,0.00,,,0.00,VWS V14.01,2013-08-30 18:16:00,
2013-08-30 14:21:00,83.4,66.4,29.95,SSE,149,0.0,239.4,57,0.00,,,0.00,VWS V14.01,2013-08-30 18:21:00,
2013-08-30 14:26:00,83.7,66.0,29.95,SSE,149,0.0,239.4,55,0.00,,,0.00,VWS V14.01,2013-08-30 18:26:00,
2013-08-30 14:32:00,84.3,66.4,29.95,SSE,149,0.0,239.4,55,0.00,,,0.00,VWS V14.01,2013-08-30 18:32:00,
2013-08-30 14:37:00,84.5,66.1,29.95,SSE,149,0.0,239.4,54,0.00,,,0.00,VWS V14.01,2013-08-30 18:37:00,
2013-08-30 14:43:00,84.3,65.9,29.95,SSE,149,0.0,239.4,54,0.00,,,0.00,VWS V14.01,2013-08-30 18:43:00,
2013-08-30 14:48:00,84.6,66.2,29.95,SSE,149,0.0,239.4,54,0.00,,,0.00,VWS V14.01,2013-08-30 18:48:00,
2013-08-30 14:53:00,85.0,66.3,29.95,SSE,149,0.0,239.4,54,0.00,,,0.00,VWS V14.01,2013-08-30 18:53:00,
2013-08-30 14:58:00,85.2,65.9,29.95,SSE,149,0.0,239.4,53,0.00,,,0.00,VWS V14.01,2013-08-30 18:58:00,
2013-08-30 15:03:00,85.4,65.5,29.95,SSE,149,0.0,239.4,51,0.00,,,0.00,VWS V14.01,2013-08-30 19:03:00,
2013-08-30 15:09:00,85.6,65.3,29.95,SSE,149,0.0,239.4,51,0.00,,,0.00,VWS V14.01,2013-08-30 19:09:00,
2013-08-30 15:14:00,85.9,65.6,29.94,SSE,149,0.0,239.4,51,0.00,,,0.00,VWS V14.01,2013-08-30 19:14:00,
2013-08-30 15:19:00,86.4,66.2,29.94,SSE,149,0.0,239.4,51,0.00,,,0.00,VWS V14.01,2013-08-30 19:19:00,
2013-08-30 15:24:00,86.5,66.0,29.94,SSE,149,0.0,239.4,51,0.00,,,0.00,VWS V14.01,2013-08-30 19:24:00,
2013-08-30 15:30:00,86.5,66.5,29.94,SSE,149,0.0,239.4,51,0.00,,,0.00,VWS V14.01,2013-08-30 19:30:00,
2013-08-30 15:35:00,86.7,65.3,29.94,SSE,149,0.0,239.4,49,0.00,,,0.00,VWS V14.01,2013-08-30 19:35:00,
2013-08-30 15:40:00,86.3,66.1,29.94,SSE,149,0.0,239.4,51,0.00,,,0.00,VWS V14.01,2013-08-30 19:40:00,
2013-08-30 15:45:00,86.5,66.9,29.94,SSE,149,0.0,239.4,52,0.00,,,0.00,VWS V14.01,2013-08-30 19:45:00,
2013-08-30 15:51:00,87.0,66.4,29.93,SSE,149,0.0,239.4,50,0.00,,,0.00,VWS V14.01,2013-08-30 19:51:00,
2013-08-30 15:56:00,87.3,67.6,29.93,SSE,149,0.0,239.4,52,0.00,,,0.00,VWS V14.01,2013-08-30 19:56:00,
2013-08-30 16:01:00,87.4,65.9,29.93,SSE,149,0.0,239.4,49,0.00,,,0.00,VWS V14.01,2013-08-30 20:01:00,
2013-08-30 16:07:00,87.5,66.4,29.93,SSE,149,0.0,239.4,50,0.00,,,0.00,VWS V14.01,2013-08-30 20:07:00,
2013-08-30 16:12:00,87.5,67.1,29.93,SSE,149,0.0,239.4,51,0.00,,,0.00,VWS V14.01,2013-08-30 20:12:00,
2013-08-30 16:18:00,87.5,66.1,29.93,SSE,149,0.0,239.4,49,0.00,,,0.00,VWS V14.01,2013-08-30 20:18:00,
2013-08-30 16:23:00,87.3,66.1,29.93,SSE,149,0.0,239.4,49,0.00,,,0.00,VWS V14.01,2013-08-30 20:23:00,
2013-08-30 16:29:00,87.1,66.2,29.93,SSE,149,0.0,239.4,50,0.00,,,0.00,VWS V14.01,2013-08-30 20:29:00,
2013-08-30 16:34:00,86.9,65.9,29.93,SSE,149,0.0,239.4,50,0.00,,,0.00,VWS V14.01,2013-08-30 20:34:00,
2013-08-30 16:39:00,86.5,66.1,29.93,SSE,149,0.0,239.4,51,0.00,,,0.00,VWS V14.01,2013-08-30 20:39:00,
2013-08-30 16:44:00,86.2,65.8,29.93,SSE,149,0.0,239.4,51,0.00,,,0.00,VWS V14.01,2013-08-30 20:44:00,
2013-08-30 16:50:00,86.4,66.9,29.93,SSE,149,0.0,239.4,52,0.00,,,0.00,VWS V14.01,2013-08-30 20:50:00,
2013-08-30 16:55:00,86.6,66.7,29.92,SSE,149,0.0,239.4,52,0.00,,,0.00,VWS V14.01,2013-08-30 20:55:00,
2013-08-30 17:00:00,86.8,66.6,29.92,SSE,149,0.0,239.4,51,0.00,,,0.00,VWS V14.01,2013-08-30 21:00:00,
2013-08-30 17:06:00,87.1,66.7,29.92,SSE,149,0.0,239.4,51,0.00,,,0.00,VWS V14.01,2013-08-30 21:06:00,
2013-08-30 17:11:00,87.4,67.0,29.92,SSE,149,0.0,239.4,51,0.00,,,0.00,VWS V14.01,2013-08-30 21:11:00,
2013-08-30 17:17:00,87.0,67.0,29.92,SSE,149,0.0,239.4,52,0.00,,,0.00,VWS V14.01,2013-08-30 21:17:00,
2013-08-30 17:22:00,86.4,67.8,29.92,SSE,149,0.0,239.4,54,0.00,,,0.00,VWS V14.01,2013-08-30 21:22:00,
2013-08-30 17:28:00,85.7,66.5,29.92,SSE,149,0.0,239.4,53,0.00,,,0.00,VWS V14.01,2013-08-30 21:28:00,
2013-08-30 17:33:00,84.9,67.3,29.92,SSE,149,0.0,239.4,56,0.00,,,0.00,VWS V14.01,2013-08-30 21:33:00,
2013-08-30 17:39:00,84.2,67.2,29.92,SSE,149,0.0,239.4,57,0.00,,,0.00,VWS V14.01,2013-08-30 21:39:00,
2013-08-30 17:44:00,83.6,67.7,29.92,SSE,149,0.0,239.4,59,0.00,,,0.00,VWS V14.01,2013-08-30 21:44:00,
2013-08-30 17:50:00,83.5,67.7,29.91,SSE,149,0.0,239.4,59,0.00,,,0.00,VWS V14.01,2013-08-30 21:50:00,
2013-08-30 17:55:00,83.3,67.9,29.91,SSE,149,0.0,239.4,60,0.00,,,0.00,VWS V14.01,2013-08-30 21:55:00,
2013-08-30 18:01:00,82.9,68.0,29.91,SSE,149,0.0,239.4,61,0.00,,,0.00,VWS V14.01,2013-08-30 22:01:00,
2013-08-30 18:07:00,82.6,68.1,29.91,SSE,149,0.0,239.4,62,0.00,,,0.00,VWS V14.01,2013-08-30 22:07:00,
2013-08-30 18:13:00,82.4,68.0,29.91,SSE,149,0.0,239.4,62,0.00,,,0.00,VWS V14.01,2013-08-30 22:13:00,
2013-08-30 18:18:00,82.2,68.1,29.91,SSE,149,0.0,239.4,62,0.00,,,0.00,VWS V14.01,2013-08-30 22:18:00,
2013-08-30 18:24:00,81.8,68.1,29.91,SSE,149,0.0,239.4,63,0.00,,,0.00,VWS V14.01,2013-08-30 22:24:00,
2013-08-30 18:29:00,81.5,68.2,29.91,SSE,149,0.0,239.4,64,0.00,,,0.00,VWS V14.01,2013-08-30 22:29:00,
2013-08-30 18:35:00,81.5,68.4,29.91,SSE,149,0.0,239.4,65,0.00,,,0.00,VWS V14.01,2013-08-30 22:35:00,
2013-08-30 18:40:00,81.0,68.3,29.90,SSE,149,0.0,239.4,65,0.00,,,0.00,VWS V14.01,2013-08-30 22:40:00,
2013-08-30 18:45:00,80.3,68.1,29.90,SSE,149,0.0,239.4,66,0.00,,,0.00,VWS V14.01,2013-08-30 22:45:00,
2013-08-30 18:50:00,80.3,68.3,29.90,SSE,149,0.0,239.4,67,0.00,,,0.00,VWS V14.01,2013-08-30 22:50:00,
2013-08-30 18:55:00,80.1,68.1,29.90,SSE,149,0.0,239.4,67,0.00,,,0.00,VWS V14.01,2013-08-30 22:55:00,
2013-08-30 19:01:00,79.8,68.2,29.90,SSE,149,0.0,239.4,68,0.00,,,0.00,VWS V14.01,2013-08-30 23:01:00,
2013-08-30 19:07:00,79.4,68.5,29.90,SSE,149,0.0,239.4,69,0.00,,,0.00,VWS V14.01,2013-08-30 23:07:00,
2013-08-30 19:12:00,79.0,69.0,29.90,SSE,149,0.0,239.4,71,0.00,,,0.00,VWS V14.01,2013-08-30 23:12:00,
2013-08-30 19:18:00,78.9,69.5,29.90,SSE,149,0.0,239.4,73,0.00,,,0.00,VWS V14.01,2013-08-30 23:18:00,
2013-08-30 19:23:00,78.2,69.1,29.90,SSE,149,0.0,239.4,74,0.00,,,0.00,VWS V14.01,2013-08-30 23:23:00,
2013-08-30 19:29:00,78.1,69.1,29.90,SSE,149,0.0,239.4,74,0.00,,,0.00,VWS V14.01,2013-08-30 23:29:00,
2013-08-30 19:34:00,77.9,69.6,29.90,SSE,149,0.0,239.4,76,0.00,,,0.00,VWS V14.01,2013-08-30 23:34:00,
2013-08-30 19:39:00,77.7,69.7,29.90,SSE,149,0.0,239.4,76,0.00,,,0.00,VWS V14.01,2013-08-30 23:39:00,
2013-08-30 19:45:00,77.3,69.5,29.90,SSE,149,0.0,239.4,77,0.00,,,0.00,VWS V14.01,2013-08-30 23:45:00,
2013-08-30 19:50:00,76.9,69.4,29.90,SSE,149,0.0,239.4,78,0.00,,,0.00,VWS V14.01,2013-08-30 23:50:00,
2013-08-30 19:55:00,76.7,69.6,29.90,SSE,149,0.0,239.4,79,0.00,,,0.00,VWS V14.01,2013-08-30 23:55:00,
2013-08-30 20:01:00,76.2,69.4,29.90,SSE,149,0.0,239.4,79,0.00,,,0.00,VWS V14.01,2013-08-31 00:01:00,
2013-08-30 20:06:00,76.0,69.3,29.90,SSE,149,0.0,239.4,80,0.00,,,0.00,VWS V14.01,2013-08-31 00:06:00,
2013-08-30 20:12:00,75.8,69.2,29.90,SSE,149,0.0,239.4,80,0.00,,,0.00,VWS V14.01,2013-08-31 00:12:00,
2013-08-30 20:17:00,75.6,69.3,29.90,SSE,149,0.0,239.4,81,0.00,,,0.00,VWS V14.01,2013-08-31 00:17:00,
2013-08-30 20:22:00,75.3,69.2,29.90,SSE,149,0.0,239.4,81,0.00,,,0.00,VWS V14.01,2013-08-31 00:22:00,
2013-08-30 20:28:00,75.1,69.2,29.90,SSE,149,0.0,239.4,82,0.00,,,0.00,VWS V14.01,2013-08-31 00:28:00,
2013-08-30 20:33:00,74.8,68.9,29.90,SSE,149,0.0,239.4,82,0.00,,,0.00,VWS V14.01,2013-08-31 00:33:00,
2013-08-30 20:38:00,74.5,68.8,29.90,SSE,149,0.0,239.4,82,0.00,,,0.00,VWS V14.01,2013-08-31 00:38:00,
2013-08-30 20:44:00,74.2,68.6,29.91,SSE,149,0.0,239.4,83,0.00,,,0.00,VWS V14.01,2013-08-31 00:44:00,
2013-08-30 20:49:00,73.9,68.4,29.91,SSE,149,0.0,239.4,83,0.00,,,0.00,VWS V14.01,2013-08-31 00:49:00,
2013-08-30 20:54:00,73.7,68.4,29.91,SSE,149,0.0,239.4,84,0.00,,,0.00,VWS V14.01,2013-08-31 00:54:00,
2013-08-30 21:00:00,73.6,68.4,29.90,SSE,149,0.0,239.4,84,0.00,,,0.00,VWS V14.01,2013-08-31 01:00:00,
2013-08-30 21:05:00,73.5,68.5,29.90,SSE,149,0.0,239.4,84,0.00,,,0.00,VWS V14.01,2013-08-31 01:05:00,
2013-08-30 21:10:00,73.4,68.7,29.91,SSE,149,0.0,239.4,85,0.00,,,0.00,VWS V14.01,2013-08-31 01:10:00,
2013-08-30 21:16:00,73.2,68.7,29.91,SSE,149,0.0,239.4,86,0.00,,,0.00,VWS V14.01,2013-08-31 01:16:00,
2013-08-30 21:21:00,73.0,68.5,29.91,SSE,149,0.0,239.4,86,0.00,,,0.00,VWS V14.01,2013-08-31 01:21:00,
2013-08-30 21:27:00,72.8,68.8,29.91,SSE,149,0.0,239.4,87,0.00,,,0.00,VWS V14.01,2013-08-31 01:27:00,
2013-08-30 21:32:00,72.6,69.1,29.91,SSE,149,0.0,239.4,89,0.00,,,0.00,VWS V14.01,2013-08-31 01:32:00,
2013-08-30 21:38:00,72.5,69.1,29.91,SSE,149,0.0,239.4,89,0.00,,,0.00,VWS V14.01,2013-08-31 01:38:00,
2013-08-30 21:43:00,72.5,69.1,29.91,SSE,149,0.0,239.4,89,0.00,,,0.00,VWS V14.01,2013-08-31 01:43:00,
2013-08-30 21:49:00,72.4,69.2,29.91,SSE,149,0.0,239.4,90,0.00,,,0.00,VWS V14.01,2013-08-31 01:49:00,
2013-08-30 21:54:00,72.4,69.3,29.91,SSE,149,0.0,239.4,90,0.00,,,0.00,VWS V14.01,2013-08-31 01:54:00,
2013-08-30 22:00:00,72.4,69.3,29.91,SSE,149,0.0,239.4,90,0.00,,,0.00,VWS V14.01,2013-08-31 02:00:00,
2013-08-30 22:06:00,72.5,69.4,29.91,SSE,149,0.0,239.4,90,0.00,,,0.00,VWS V14.01,2013-08-31 02:06:00,
2013-08-30 22:11:00,72.6,69.4,29.91,SSE,149,0.0,239.4,90,0.00,,,0.00,VWS V14.01,2013-08-31 02:11:00,
2013-08-30 22:17:00,72.7,69.5,29.91,SSE,149,0.0,239.4,90,0.00,,,0.00,VWS V14.01,2013-08-31 02:17:00,
2013-08-30 22:23:00,72.8,69.6,29.91,SSE,149,0.0,239.4,90,0.00,,,0.00,VWS V14.01,2013-08-31 02:23:00,
2013-08-30 22:28:00,73.0,69.9,29.91,SSE,149,0.0,239.4,90,0.00,,,0.00,VWS V14.01,2013-08-31 02:28:00,
2013-08-30 22:33:00,73.1,69.9,29.91,SSE,149,0.0,239.4,90,0.00,,,0.00,VWS V14.01,2013-08-31 02:33:00,
2013-08-30 22:44:00,73.1,70.0,29.91,SSE,149,0.0,239.4,90,0.00,,,0.00,VWS V14.01,2013-08-31 02:44:00,
2013-08-30 22:50:00,73.1,69.9,29.91,SSE,149,0.0,239.4,90,0.00,,,0.00,VWS V14.01,2013-08-31 02:50:00,
2013-08-30 22:55:00,73.2,69.9,29.91,SSE,149,0.0,239.4,89,0.00,,,0.00,VWS V14.01,2013-08-31 02:55:00,
2013-08-30 23:01:00,73.3,70.1,29.91,SSE,149,0.0,239.4,90,0.00,,,0.00,VWS V14.01,2013-08-31 03:01:00,
2013-08-30 23:06:00,73.4,70.1,29.91,SSE,149,0.0,239.4,89,0.00,,,0.00,VWS V14.01,2013-08-31 03:06:00,
2013-08-30 23:17:00,73.6,70.1,29.91,SSE,149,0.0,239.4,89,0.00,,,0.00,VWS V14.01,2013-08-31 03:17:00,
2013-08-30 23:22:00,73.7,70.2,29.91,SSE,149,0.0,239.4,89,0.00,,,0.00,VWS V14.01,2013-08-31 03:22:00,
2013-08-30 23:28:00,73.7,70.1,29.91,SSE,149,0.0,239.4,89,0.00,,,0.00,VWS V14.01,2013-08-31 03:28:00,
2013-08-30 23:33:00,73.7,70.2,29.91,SSE,149,0.0,239.4,89,0.00,,,0.00,VWS V14.01,2013-08-31 03:33:00,
2013-08-30 23:39:00,73.6,70.2,29.91,SSE,149,0.0,239.4,89,0.00,,,0.00,VWS V14.01,2013-08-31 03:39:00,
2013-08-30 23:44:00,73.6,70.3,29.90,SSE,149,0.0,239.4,89,0.00,,,0.00,VWS V14.01,2013-08-31 03:44:00,
2013-08-30 23:50:00,73.4,70.1,29.91,SSE,149,0.0,239.4,90,0.00,,,0.00,VWS V14.01,2013-08-31 03:50:00,
2013-08-30 23:55:00,73.3,70.1,29.90,SSE,149,0.0,239.4,90,0.00,,,0.00,VWS V14.01,2013-08-31 03:55:00,